View from above orbital plane
|
View from above satellite
|
Ground track
|
The orbit data is extracted from the following two-line orbital elements,
1 11166U 78121B 13168.17272661 .00000010 00000-0 -15888-5 0 4885
2 11166 081.2380 173.7399 0067697 102.4232 328.5005 14.13501807777528
| Epoch (UTC): | 17 June 2013 04:08:43 |
| Eccentricity: | 0.0067697 |
| inclination: | 81.2380° |
| perigee height: | 798 km |
| apogee height: | 896 km |
| right ascension of ascending node: | 173.7399° |
| argument of perigee: | 102.4232° |
| revolutions per day: | 14.13501807 |
| mean anomaly at epoch: | 328.5005° |
| orbit number at epoch: | 77752 |
The dashed part of the orbit path shows where the satellite is in the earth's shadow,
|
|